Home > Weather > Victoria > Past weeks

Flag for USA Weather for the Past 2 Weeks in Victoria, Texas, USA

Now
81 °F

Sunny.


Feels Like: 81 °F
Forecast: 56 / 89 °F
Wind: 7 mph from West

Location: Victoria Regional Airport

Current Time: May 5, 2016 at 11:27:10 AM

Latest Report: May 5, 2016 at 10:51 AM


Visibility: 10 mi

Pressure: 30.06 "Hg

Humidity: 45%

Dew Point: 58 °F

Location of VictoriaLocation

Historic Weather in Victoria — Graph

°F

Victoria Temperature Yesterday

Maximum temperature yesterday: 85 °F (at 5:51 PM)
Minimum temperature yesterday: 53 °F (at 6:51 AM)
Average temperature yesterday: 70 °F

High & Low Weather Summary for the Past Weeks

 TemperatureHumidityPressure
High87 °F (Apr 30, 3:51 PM)97% (Apr 21, 1:51 AM)30.11 "Hg (Apr 21, 1:51 AM)
Low53 °F (May 4, 6:51 AM)32% (May 4, 4:51 PM)29.58 "Hg (Apr 30, 3:51 AM)
Average74 °F78%29.87 "Hg
* Reported Apr 20 9:51 AM — May 5 9:51 AM, Victoria, Weather by CustomWeather, © 2016

Note: Actual official high and low records may vary slightly from our data, if they occured in-between our weather recording intervals... More about our weather records

Advertising

Victoria Weather History for the Previous 24 Hours

Scroll right to see more
 ConditionsComfort  
Time TempWeatherWind HumidityBarometerVisibility
9:51 AM
Thu, May 5
76 °FSunny.8 mph56%30.06 "Hg10 mi
8:51 AM70 °FSunny.7 mph68%30.05 "Hg10 mi
7:51 AM63 °FSunny.3 mph87%30.04 "Hg10 mi
6:51 AM59 °FClear.5 mph90%30.03 "Hg10 mi
5:51 AM59 °FClear.7 mph90%30.02 "Hg10 mi
4:51 AM59 °FClear.7 mph90%30.01 "Hg10 mi
3:51 AM60 °FClear.6 mph93%30.00 "Hg10 mi
2:51 AM63 °FClear.7 mph87%30.01 "Hg10 mi
1:51 AM65 °FClear.8 mph81%30.01 "Hg10 mi
12:51 AM66 °FClear.9 mph81%30.01 "Hg10 mi
11:51 PM
Wed, May 4
66 °FClear.6 mph78%30.01 "Hg6 mi
10:51 PM67 °FClear.8 mph79%30.00 "Hg6 mi
9:51 PM71 °FClear.No wind68%29.98 "Hg10 mi
8:51 PM72 °FSunny.No wind71%29.96 "Hg10 mi
7:51 PM79 °FSunny.5 mph54%29.96 "Hg10 mi
6:51 PM84 °FSunny.6 mph37%29.96 "Hg10 mi
5:51 PM85 °FSunny.10 mph34%29.97 "Hg10 mi
4:51 PM84 °FSunny.7 mph32%29.98 "Hg10 mi
3:51 PM84 °FSunny.9 mph33%30.00 "Hg10 mi
2:51 PM83 °FPassing clouds.7 mph36%30.02 "Hg10 mi
1:51 PM82 °FSunny.6 mph34%30.04 "Hg10 mi
12:51 PM79 °FSunny.6 mph36%30.08 "Hg10 mi
11:51 AM78 °FSunny.6 mph37%30.10 "Hg10 mi
Weather by CustomWeather, © 2016

See weather overviewHow to use our weather pages